x

Niagara Coast Guard Station, Ny (ygnn6) Weather Station

10:00pm - Tue 16th Sep 2014 All times are CDT. -5 hours from GMT.

  • Wind
    10mph, 14mph gusts
  • Air Temp 63°f
  • Sea Pressure 1017.3mb
  • Niagara Coast Guard Station, Ny
  • Niagara Coast Guard Station, Ny

More Historic Weather Station data

Upgrade to MSW Pro to gain access to the past 30 days of data for over 8000 Wavebouys and Weather Stations around the globe.

Join Pro

Comparision Forecast

View Surf forecast
   
Tue 09/16 10:00pm 10 14 mph 1017.3mb 63f
9:50pm 11 14 mph 1017.6mb 63f
9:40pm 11 15 mph 1017.6mb 63f
9:30pm 13 16 mph 1017.6mb 63f
9:20pm 14 17 mph 1017.6mb 63f
9:10pm 14 16 mph 1017.6mb 63f
9:00pm 14 17 mph 1017.6mb 63f
8:50pm 14 17 mph 1017.6mb 64f
8:40pm 15 17 mph 1017.6mb 64f
8:30pm 14 15 mph 1017.6mb 64f
8:20pm 6 10 mph 1017.6mb 62f
8:10pm 5 8 mph 1017.6mb 62f
8:00pm 5 7 mph 1017.6mb 61f
7:50pm 5 7 mph 1017.6mb 61f
7:40pm 5 6 mph 1017.6mb 60f
7:30pm 5 6 mph 1017.6mb 60f
7:20pm 5
mph
1017.3mb 61f
7:10pm 3 5 mph 1017.3mb 61f
7:00pm 2 3 mph 1017.3mb 61f
6:50pm 2 5 mph 1017.3mb 62f
6:40pm 3 5 mph 1017.3mb 62f
6:30pm 3 5 mph 1017.3mb 62f
6:20pm 2 6 mph 1017.3mb 63f
6:10pm 3 6 mph 1017.3mb 64f
6:00pm 3 7 mph 1017.3mb 64f
5:50pm 5 8 mph 1017.3mb 65f
5:40pm 5 7 mph 1017.3mb 65f
5:30pm 6 8 mph 1017.3mb 65f
5:20pm 6 9 mph 1017.3mb 65f
5:10pm 6 9 mph 1017.3mb 65f
5:00pm 8 10 mph 1017.3mb 65f
4:50pm 7 11 mph 1016.9mb 65f
4:40pm 9 11 mph 1017.3mb 65f
4:30pm 9 11 mph 1017.3mb 64f
4:20pm 9 10 mph 1017.3mb 64f
4:10pm 9 11 mph 1017.3mb 64f
4:00pm 9 11 mph 1017.3mb 64f
3:50pm 9 11 mph 1017.3mb 64f
3:40pm 8 10 mph 1017.3mb 64f
3:30pm 8 10 mph 1017.3mb 64f
3:20pm 8 13 mph 1017.3mb 64f
3:10pm 10 11 mph 1017.3mb 64f
3:00pm 8 11 mph 1017.6mb 64f
2:50pm 10 13 mph 1017.6mb 64f
2:40pm 9 10 mph 1017.6mb 64f
2:30pm 8 9 mph 1017.6mb 63f
2:20pm 8 9 mph 1017.6mb 63f
2:10pm 8 9 mph 1017.9mb 63f
2:00pm 8 9 mph 1017.9mb 63f
1:50pm 5 10 mph 1017.9mb 62f
1:40pm 8 9 mph 1017.9mb 62f
1:30pm 7 11 mph 1017.9mb 62f
1:20pm 9 11 mph 1018.3mb 62f
1:10pm 9 13 mph 1018.3mb 61f
1:00pm 10 13 mph 1018.3mb 61f
12:50pm 9 11 mph 1018.3mb 61f
12:40pm 10 13 mph 1018.3mb 61f
12:30pm 8 15 mph 1018.6mb 61f
12:20pm 8 13 mph 1018.6mb 61f
12:10pm 8 13 mph 1018.6mb 60f
12:00pm 9 13 mph 1018.6mb 60f
11:50am 8 13 mph 1018.6mb 60f
11:40am 9 11 mph 1018.6mb 60f
11:30am 7 10 mph 1018.6mb 60f
11:20am 8 14 mph 1019mb 60f
11:10am 8 11 mph 1019mb 60f
11:00am 10 13 mph 1019mb 59f
10:50am 10 13 mph 1019mb 59f
10:40am 8 13 mph 1019.3mb 59f
10:30am 9 13 mph 1019mb 59f
10:20am 10 11 mph 1019.3mb 59f
10:10am 9 13 mph 1019.3mb 59f
10:00am 9 14 mph 1019.3mb 59f
9:50am 10 14 mph 1019.3mb 59f
9:40am 11 15 mph 1019.3mb 59f
9:30am 11 14 mph 1019.3mb 58f
9:20am 11 14 mph 1019.3mb 59f
9:10am 10 15 mph 1019.3mb 59f
9:00am 14 16 mph 1019.3mb 59f
8:50am 14 16 mph 1019.3mb 59f
8:40am 11 17 mph 1019mb 59f
8:30am 13 15 mph 1019mb 59f
8:20am 11 15 mph 1019mb 59f
8:10am 14 16 mph 1018.6mb 59f
8:00am 11 13 mph 1018.6mb 59f
7:50am 9 11 mph 1018.6mb 59f
7:40am 10 14 mph 1018.6mb 59f
7:30am 11 15 mph 1018.3mb 58f
7:20am 11 15 mph 1018.3mb 58f
7:10am 11 16 mph 1018.3mb 58f
7:00am 13 15 mph 1018.3mb 58f
6:50am 11 14 mph 1018.3mb 58f
6:40am 11 15 mph 1018.3mb 58f
6:30am 13 16 mph 1018.3mb 58f
6:20am 13 15 mph 1018.3mb 58f
6:10am 14 17 mph 1018.3mb 58f
6:00am 15 18 mph 1017.9mb 58f
5:50am 16 18 mph 1017.9mb 58f
5:40am 15 18 mph 1017.9mb 58f
5:30am 16 21 mph 1017.6mb 59f
5:20am 14 18 mph 1017.6mb 59f
5:10am 15 20 mph 1017.3mb 59f
5:00am 15 20 mph 1017.3mb 59f
4:50am 17 21 mph 1017.3mb 59f
4:40am 15 20 mph 1017.3mb 59f
4:30am 15 18 mph 1017.3mb 59f
4:20am 16 20 mph 1016.9mb 59f
4:10am 14 18 mph 1016.9mb 60f
4:00am 14 17 mph 1016.9mb 60f
3:50am 13 16 mph 1016.9mb 60f
3:40am 11 15 mph 1016.9mb 60f
3:30am 11 15 mph 1016.9mb 60f
3:20am 11 16 mph 1016.9mb 60f
3:10am 11 15 mph 1016.9mb 60f
3:00am 10 15 mph 1016.6mb 59f
2:50am 13 15 mph 1016.6mb 60f
2:40am 14 15 mph 1016.6mb 60f
2:30am 11 15 mph 1016.6mb 59f
2:20am 5 10 mph 1016.6mb 57f
2:10am 7 9 mph 1016.6mb 56f
2:00am 7 9 mph 1016.6mb 56f
1:50am 6 8 mph 1016.6mb 56f
1:40am 6 8 mph 1016.6mb 56f
1:30am 6 8 mph 1016.9mb 56f
1:20am 6 8 mph 1016.9mb 56f
1:10am 6 9 mph 1016.9mb 56f
1:00am 6 9 mph 1017.3mb 56f
12:50am 6 10 mph 1017.3mb 56f
12:40am 7 9 mph 1017.3mb 56f
12:30am 5 9 mph 1016.9mb 56f
12:20am 6 8 mph 1016.9mb 56f
12:10am 6 9 mph 1016.9mb 56f
12:00am 7 8 mph 1017.3mb 56f
Mon 09/15 11:50pm 7 9 mph 1017.3mb 56f
11:40pm 7 9 mph 1017.3mb 56f
11:30pm 7 10 mph 1017.3mb 56f
11:20pm 7 10 mph 1017.6mb 56f
11:10pm 6 10 mph 1017.6mb 56f
11:00pm 7 9 mph 1017.6mb 56f
10:50pm 6 9 mph 1017.3mb 56f
10:40pm 6 7 mph 1017.6mb 56f
10:30pm 5 8 mph 1017.6mb 56f
10:20pm 6 9 mph 1017.6mb 56f
10:10pm 7 10 mph 1017.6mb 56f
10:00pm 7 9 mph 1017.6mb 56f
9:50pm 6 7 mph 1017.6mb 57f
9:40pm 6 9 mph 1017.6mb 57f
9:30pm 6 9 mph 1017.9mb 57f
9:20pm 6 8 mph 1017.9mb 57f
9:10pm 8 9 mph 1017.9mb 57f
9:00pm 7 9 mph 1017.9mb 57f
8:50pm 8 9 mph 1017.9mb 57f
8:40pm 7 8 mph 1017.9mb 58f
8:30pm 6 7 mph 1017.9mb 58f
8:20pm 5 7 mph 1017.9mb 58f
8:10pm 5 6 mph 1017.9mb 58f
8:00pm 3 5 mph 1017.6mb 58f
7:50pm 3 5 mph 1017.6mb 59f
7:40pm 3 6 mph 1017.9mb 59f
7:30pm 5 9 mph 1017.9mb 60f
7:20pm 6 11 mph 1017.9mb 60f
7:10pm 5 9 mph 1017.9mb 59f
7:00pm 7 9 mph 1017.9mb 59f
6:50pm 7 14 mph 1017.9mb 59f
6:40pm 10 15 mph 1017.9mb 60f
6:30pm 14 22 mph 1017.9mb 60f
6:20pm 20 26 mph 1017.9mb 61f
6:10pm 21 23 mph 1017.9mb 61f
6:00pm 7 11 mph 1018.3mb 61f
5:50pm 7 8 mph 1018.3mb 61f
5:40pm 5 6 mph 1018.6mb 61f
5:30pm 3 6 mph 1018.6mb 62f
5:20pm 3 6 mph 1018.3mb 62f
5:10pm 6 7 mph 1018.6mb 62f
5:00pm 6 7 mph 1018.6mb 62f
4:50pm 3 6 mph 1018.3mb 62f
4:40pm 3 5 mph 1018.3mb 62f
4:30pm 3 6 mph 1018.3mb 62f
4:20pm 5 6 mph 1018.3mb 62f
4:10pm 5 9 mph 1018.3mb 63f
4:00pm 5 9 mph 1018.6mb 63f
3:50pm 3 7 mph 1018.6mb 64f
3:40pm 7 9 mph 1019.3mb 63f
3:30pm 8 10 mph 1019.3mb 64f
3:20pm 7 9 mph 1019.3mb 64f
3:10pm 5 7 mph 1019mb 64f
3:00pm 6 8 mph 1019mb 64f
2:50pm 5 8 mph 1019mb 64f
2:40pm 6 9 mph 1019mb 64f
2:30pm 7 11 mph 1019mb 64f
2:20pm 10 14 mph 1019.6mb 64f
2:10pm 6 8 mph 1019.3mb 64f
2:00pm 5 8 mph 1019.6mb 64f
1:50pm 8 11 mph 1020mb 64f
1:40pm 9 14 mph 1019.6mb 64f
1:30pm 7 10 mph 1019.6mb 65f
1:20pm 7 13 mph 1019.6mb 65f
1:10pm 9 14 mph 1020mb 65f
1:00pm 7 11 mph 1020mb 65f
12:50pm 7 10 mph 1020mb 65f
12:40pm 7 13 mph 1020mb 65f
12:30pm 7 11 mph 1020.3mb 65f
12:20pm 8 14 mph 1020.3mb 65f
12:10pm 8 14 mph 1020.7mb 65f
12:00pm 9 13 mph 1020.7mb 65f
11:50am 10 16 mph 1020.7mb 65f
11:40am 11 16 mph 1020.7mb 65f
11:30am 8 16 mph 1021.3mb 65f
11:20am 13 16 mph 1021.3mb 65f
11:10am 9 17 mph 1021.3mb 65f
11:00am 10 21 mph 1021mb 65f
10:50am 8 17 mph 1021.3mb 65f
10:40am 6 15 mph 1021mb 64f
10:30am 8 15 mph 1021.3mb 64f
10:20am 9 13 mph 1021.3mb 64f
10:10am 7 13 mph 1021.7mb 64f
10:00am 8 13 mph 1022mb 64f
9:50am 5 13 mph 1022mb 64f
9:40am 6 11 mph 1022.4mb 64f
9:30am 5 10 mph 1022.4mb 63f
9:20am 8 9 mph 1022.4mb 63f
9:10am 7 10 mph 1022.4mb 62f
9:00am 6 9 mph 1022mb 62f
8:50am 8 10 mph 1022.4mb 61f
8:40am 6 9 mph 1022.4mb 60f
8:30am 7 8 mph 1022.4mb 60f
8:20am 5 9 mph 1022.4mb 59f
8:10am 6 8 mph 1022.4mb 59f
8:00am 5 7 mph 1022.4mb 58f
7:50am 5 7 mph 1022.7mb 57f
7:40am 5 7 mph 1022.7mb 57f
7:30am 5 8 mph 1022.7mb 56f
7:20am 6 7 mph 1022.7mb 55f
7:10am 6 8 mph 1022.7mb 54f
7:00am 6 7 mph 1022.7mb 54f
6:50am 5 7 mph 1022.7mb 53f
6:40am 6 7 mph 1022.7mb 53f
6:30am 3 6 mph 1023mb 53f
6:20am 3 6 mph 1023mb 54f
6:10am 5 6 mph 1023mb 54f
6:00am 3 6 mph 1023mb 53f
5:50am 3 6 mph 1023mb 53f
5:40am 5 6 mph 1023mb 54f
5:30am 5 6 mph 1022.7mb 54f
5:20am 5 6 mph 1022.7mb 54f
5:10am 3 5 mph 1022.7mb 55f
5:00am 3 5 mph 1022.7mb 55f
4:50am 5 6 mph 1022.7mb 55f
4:40am 5 7 mph 1022.7mb 54f
4:30am 6 7 mph 1022.7mb 54f
4:20am 3 5 mph 1022.7mb 54f
4:10am 5 8 mph 1022.4mb 54f
4:00am 6 7 mph 1022.4mb 54f
3:50am 6 8 mph 1022.4mb 55f
3:40am 7 9 mph 1022.4mb 54f
3:30am 6 8 mph 1022.4mb 55f
3:20am 7 8 mph 1022.4mb 55f
3:10am 6 9 mph 1022.4mb 55f
3:00am 7 9 mph 1022.4mb 55f
2:50am 7 9 mph 1022.4mb 55f
2:40am 6 8 mph 1022.4mb 55f
2:30am 6 7 mph 1022.7mb 55f
2:20am 5 7 mph 1022.4mb 56f
2:10am 6 7 mph 1022.7mb 56f
2:00am 6 8 mph 1022.7mb 56f
1:50am 6 8 mph 1022.7mb 56f
1:40am 6 8 mph 1022.7mb 56f
1:30am 3 6 mph 1022.7mb 56f
1:20am 5 7 mph 1023mb 56f
1:10am 6 7 mph 1023mb 56f
1:00am 5 7 mph 1023mb 56f
12:50am 6 8 mph 1022.7mb 56f
12:40am 6 8 mph 1022.7mb 56f
12:30am 6 9 mph 1022.7mb 56f
12:20am 6 8 mph 1022.7mb 56f
12:10am 6 7 mph 1022.7mb 56f
12:00am 6 7 mph 1022.7mb 56f
Sun 09/14 11:50pm 6 8 mph 1022.7mb 56f
11:40pm 6 8 mph 1023mb 56f
11:30pm 7 8 mph 1023mb 56f
11:20pm 7 9 mph 1022.7mb 56f
11:10pm 7 8 mph 1022.7mb 55f
11:00pm 7 8 mph 1023mb 55f
10:50pm 7 9 mph 1023mb 55f
10:40pm 7 10 mph 1023mb 55f
10:30pm 8 10 mph 1023mb 55f
10:20pm 8 10 mph 1023.4mb 55f
10:10pm 9 10 mph 1023mb 55f
10:00pm 7 10 mph 1023mb 56f
9:50pm 9 10 mph 1023mb 55f
9:40pm 9 11 mph 1023mb 55f
9:30pm 8 9 mph 1023mb 55f
9:20pm 8 10 mph 1023.4mb 55f
9:10pm 9 10 mph 1023.4mb 55f
9:00pm 7 10 mph 1023.4mb 55f
8:50pm 7 10 mph 1023.4mb 55f
8:40pm 9 10 mph 1023.4mb 55f
8:30pm 8 9 mph 1023.4mb 55f
8:20pm 7 9 mph 1023.4mb 55f
8:10pm 8 9 mph 1023.4mb 55f
8:00pm 5 7 mph 1023.4mb 55f
7:50pm 5 8 mph 1023.7mb 56f
7:40pm 6 8 mph 1023.7mb 56f
7:30pm 3 7 mph 1023.7mb 56f
7:20pm 5 7 mph 1023.4mb 56f
7:10pm 6 8 mph 1023.4mb 56f
7:00pm 3 7 mph 1023.4mb 56f
6:50pm 6 7 mph 1023.4mb 56f
6:40pm 3 8 mph 1023.4mb 56f
6:30pm 3 8 mph 1023.4mb 56f
6:20pm 2 7 mph 1023.4mb 56f
6:10pm 5 8 mph 1023.4mb 57f
6:00pm 2 8 mph 1023.7mb 57f
5:50pm 5 8 mph 1023.7mb 57f
5:40pm 5 10 mph 1023.7mb 58f
5:30pm 2 8 mph 1023.7mb 58f
5:20pm 2 6 mph 1023.7mb 58f
5:10pm 5 8 mph 1023.7mb 58f
5:00pm 5 7 mph 1024mb 58f
4:50pm 1 6 mph 1024mb 58f
4:40pm 2 7 mph 1024mb 58f
4:30pm 3 7 mph 1024mb 58f
4:20pm  -  6 mph 1024mb 58f
4:10pm 5 7 mph 1024.4mb 58f
4:00pm 3 7 mph 1024.4mb 58f
3:50pm 2 6 mph 1024.4mb 58f
3:40pm 3 7 mph 1024.7mb 58f
3:30pm 5 7 mph 1024.7mb 58f
3:20pm 3 7 mph 1024.7mb 59f
3:10pm 2 9 mph 1024.7mb 60f
3:00pm 3 8 mph 1024.7mb 60f
2:50pm 5 7 mph 1024.7mb 58f
2:40pm 3 7 mph 1025.1mb 58f
2:30pm 3 7 mph 1025.1mb 59f
2:20pm 5 8 mph 1025.1mb 59f
2:10pm 3 5 mph 1025.4mb 59f
2:00pm 3 6 mph 1025.4mb 59f
1:50pm 3 6 mph 1025.4mb 59f
1:40pm 3 6 mph 1025.7mb 58f
1:30pm 5 7 mph 1025.7mb 58f
1:20pm 3 6 mph 1026.1mb 58f
1:10pm 3 7 mph 1026.1mb 58f
1:00pm 3 6 mph 1026.1mb 58f
12:50pm 2 6 mph 1026.1mb 58f
12:40pm 5 6 mph 1026.4mb 59f
12:30pm 1 6 mph 1026.4mb 58f
12:20pm 6 7 mph 1026.4mb 57f
12:10pm 2 6 mph 1026.4mb 58f
12:00pm 5 6 mph 1026.4mb 58f
11:50am 3 6 mph 1026.4mb 58f
11:40am 3 5 mph 1026.4mb 58f
11:30am 2 6 mph 1026.8mb 57f
11:20am 2 5 mph 1026.8mb 57f
11:10am  -  6 mph 1026.8mb 57f
11:00am 5 6 mph 1027.1mb 56f
10:50am 3 6 mph 1027.1mb 56f
10:40am 3 6 mph 1027.1mb 57f
10:30am 3 7 mph 1027.1mb 56f
10:20am  -  3 mph 1027.1mb 57f
10:10am  -  3 mph 1027.4mb 58f
10:00am 3 8 mph 1027.4mb 57f
9:50am 3 8 mph 1027.4mb 58f
9:40am 2 6 mph 1027.4mb 57f
9:30am 2 8 mph 1027.8mb 57f
9:20am  -  6 mph 1027.4mb 57f
9:10am 5 8 mph 1027.4mb 56f
9:00am 3 8 mph 1027.4mb 56f
8:50am 6 9 mph 1027.4mb 56f
8:40am 5 8 mph 1027.4mb 55f
8:30am 6 8 mph 1027.8mb 55f
8:20am 7 9 mph 1027.8mb 54f
8:10am 8 9 mph 1027.8mb 54f
8:00am 8 9 mph 1027.8mb 53f
7:50am 7 9 mph 1027.8mb 54f
7:40am 6 8 mph 1027.8mb 53f
7:30am 7 8 mph 1027.4mb 53f
7:20am 6 7 mph 1027.4mb 52f
7:10am 7 8 mph 1027.4mb 51f
7:00am 5 7 mph 1027.8mb 51f
6:50am 6
mph
1027.4mb 50f
6:40am 5
mph
1027.4mb 50f
6:30am 5
mph
1027.4mb 49f
6:20am 3 5 mph 1027.4mb 49f
6:10am 5
mph
1027.4mb 49f
6:00am 5 6 mph 1027.1mb 49f
5:50am 5 6 mph 1027.1mb 49f
5:40am 3 5 mph 1027.1mb 49f
5:30am 3 6 mph 1027.1mb 50f
5:20am 3 6 mph 1027.1mb 51f
5:10am 3 6 mph 1026.8mb 51f
5:00am 5 6 mph 1026.8mb 51f
4:50am 5
mph
1026.8mb 51f
4:40am 2 5 mph 1027.1mb 51f
4:30am 1 5 mph 1027.1mb 51f
4:20am 3 5 mph 1027.1mb 52f
4:10am 3 5 mph 1026.8mb 51f
4:00am 3 5 mph 1027.1mb 52f
3:50am 3 5 mph 1027.1mb 52f
3:40am 3 5 mph 1026.8mb 52f
3:30am 2 3 mph 1026.8mb 53f
3:20am 2 5 mph 1026.8mb 53f
3:10am 3 6 mph 1026.8mb 52f
3:00am 3
mph
1026.8mb 53f
2:50am 2 6 mph 1026.8mb 54f
2:40am 1 6 mph 1026.4mb 54f
2:30am 3 8 mph 1026.8mb 54f
2:20am 5 9 mph 1026.8mb 54f
2:10am 5 9 mph 1026.4mb 55f
2:00am 3 6 mph 1026.4mb 54f
1:50am 6 9 mph 1026.4mb 55f
1:40am 5 9 mph 1026.8mb 55f
1:30am 6 10 mph 1026.8mb 55f
1:20am 6 9 mph 1026.8mb 55f
1:10am 8 10 mph 1026.8mb 55f
1:00am 7 10 mph 1026.8mb 55f
12:50am 6 9 mph 1026.8mb 55f
12:40am 6 9 mph 1026.8mb 55f
12:30am 6 9 mph 1026.8mb 55f
12:20am 8 10 mph 1026.4mb 55f
12:10am 6 13 mph 1026.4mb 55f
12:00am 6 10 mph 1026.4mb 55f
Sat 09/13 11:50pm 7 11 mph 1026.4mb 55f
11:40pm 9 13 mph 1026.4mb 55f
11:30pm 10 13 mph 1026.4mb 55f
11:20pm 9 14 mph 1026.4mb 55f
11:10pm 13 15 mph 1026.4mb 55f
11:00pm 11 15 mph 1026.4mb 56f
10:50pm 13 16 mph 1026.1mb 56f
10:40pm 11 16 mph 1026.4mb 56f
10:30pm 14 17 mph 1026.4mb 56f
10:20pm 9 16 mph 1026.1mb 56f
10:10pm 8 14 mph 1026.1mb 56f
10:00pm 13 17 mph 1026.1mb 56f
9:50pm 11 18 mph 1025.7mb 56f
9:40pm 15 18 mph 1025.7mb 56f
9:30pm 16 20 mph 1025.4mb 57f
9:20pm 16 21 mph 1025.4mb 57f
9:10pm 16 18 mph 1025.1mb 57f
9:00pm 14 18 mph 1025.1mb 57f
8:50pm 11 18 mph 1024.7mb 57f
8:40pm 15 18 mph 1024.7mb 57f
8:30pm 15 18 mph 1024.7mb 57f
8:20pm 13 15 mph 1024.7mb 57f
8:10pm 11 17 mph 1024.7mb 57f
8:00pm 14 17 mph 1024.4mb 57f
7:50pm 14 21 mph 1024.4mb 58f
7:40pm 16 18 mph 1024.4mb 58f
7:30pm 16 22 mph 1024mb 58f
7:20pm 17 20 mph 1024mb 58f
7:10pm 17 21 mph 1024mb 58f
7:00pm 17 20 mph 1023.7mb 58f
6:50pm 15 20 mph 1023.7mb 58f
6:40pm 15 18 mph 1023.4mb 58f
6:30pm 14 18 mph 1023.4mb 59f
6:20pm 14 17 mph 1023.4mb 58f
6:10pm 16 18 mph 1023.4mb 59f
6:00pm 15 18 mph 1023.4mb 59f
5:50pm 14 17 mph 1023mb 58f
5:40pm 14 20 mph 1023mb 58f
5:30pm 14 18 mph 1023mb 59f
5:20pm 13 18 mph 1022.7mb 59f
5:10pm 15 22 mph 1022.7mb 59f
5:00pm 17 22 mph 1022.7mb 58f
4:50pm 15 20 mph 1022.7mb 58f
4:40pm 15 21 mph 1022.4mb 58f
4:30pm 15 18 mph 1022.4mb 58f
4:20pm 15 18 mph 1022.4mb 58f
4:10pm 13 18 mph 1022mb 57f
3:00pm 11 16 mph 1021mb 58f
2:50pm 14 20 mph 1020.7mb 58f
2:40pm 9 11 mph 1020.3mb 58f
2:30pm 8 11 mph 1020.3mb 58f
2:20pm 9 13 mph 1020mb 58f
2:10pm 7 13 mph 1020mb 57f
2:00pm 9 14 mph 1020mb 57f
1:50pm 10 14 mph 1019.6mb 57f
1:40pm 9 14 mph 1019.6mb 56f
1:30pm 11 17 mph 1019.6mb 56f
1:20pm 14 17 mph 1019.6mb 56f
1:10pm 14 21 mph 1019.3mb 56f
1:00pm 20 22 mph 1019.3mb 56f
12:50pm 17 21 mph 1019.3mb 56f
12:40pm 16 20 mph 1018.6mb 56f
12:30pm 15 18 mph 1018.6mb 56f
12:20pm 16 18 mph 1018.3mb 55f
12:10pm 14 17 mph 1018.3mb 55f
12:00pm 7 9 mph 1017.6mb 54f
11:50am 6 13 mph 1017.6mb 54f
11:40am 11 22 mph 1017.6mb 54f
11:30am 18 22 mph 1017.6mb 54f
11:20am 15 17 mph 1017.6mb 54f
11:10am 11 17 mph 1017.6mb 53f
11:00am 11 14 mph 1017.3mb 53f
10:50am 8 9 mph 1017.3mb 53f
10:40am 5 6 mph 1017.3mb 52f
10:30am  -  3 mph 1017.3mb 52f
10:20am 1 2 mph 1017.3mb 52f
10:10am  -  2 mph 1017.3mb 52f
10:00am  -  2 mph 1016.9mb 52f
9:50am  -  2 mph 1017.3mb 51f
9:40am  -  3 mph 1017.3mb 51f
9:30am  -  3 mph 1017.3mb 51f
9:20am  -  3 mph 1017.3mb 51f
9:10am 1 6 mph 1017.3mb 51f
9:00am 3 8 mph 1017.3mb 51f
8:50am 7 11 mph 1017.6mb 51f
8:40am 8 10 mph 1017.3mb 51f
8:30am 8 10 mph 1017.6mb 51f
8:20am 7 10 mph 1017.6mb 51f
8:10am 5 9 mph 1017.6mb 51f
8:00am 8 10 mph 1017.9mb 51f
7:50am 5 8 mph 1017.9mb 51f
7:40am 2 5 mph 1018.3mb 51f
7:30am 2 6 mph 1017.9mb 51f
7:20am 2 7 mph 1018.3mb 51f
7:10am 3 8 mph 1018.6mb 51f
7:00am 5 9 mph 1018.6mb 52f
6:50am 3 10 mph 1018.6mb 52f
6:40am 5 11 mph 1019mb 52f
6:30am 8 10 mph 1019.3mb 52f
6:20am 5 11 mph 1019mb 52f
6:10am 9 11 mph 1019.3mb 52f
6:00am 9 13 mph 1019.3mb 52f
5:50am 6 10 mph 1019.3mb 52f
5:40am 5 10 mph 1019.3mb 52f
5:30am 7 13 mph 1019.3mb 52f
5:20am 7 13 mph 1019.3mb 52f
5:10am 5 9 mph 1019.6mb 52f
5:00am 2 9 mph 1019.6mb 52f
4:50am 6 10 mph 1019.6mb 52f
4:40am 3 13 mph 1019.6mb 52f
4:30am 8 11 mph 1020mb 52f